Location: Tel Aviv-Yafo
(32.0853°N, 34.7818°E)
Time: 01:49:19
(UTC+02:00)

Tiangong - Visible Passes

Search period start: 09 November 2024 00:00
Search period end: 19 November 2024 00:00
Orbit: 383 x 397 km, 41.5° (Epoch: 08 November)

Date Brightness Start Highest point End Pass type
(mag) Time Alt. Az. Time Alt. Az. Time Alt. Az.
09 Nov -2.1 17:50:09 10° WSW 17:53:20 78° NNW 17:54:38 33° NE visible
10 Nov -0.1 18:29:33 10° WNW 18:31:42 24° NW 18:31:42 24° NW visible
11 Nov -1.1 17:30:57 10° W 17:33:58 39° NNW 17:36:18 15° NE visible
12 Nov -0.1 18:10:29 10° WNW 18:12:52 19° NNW 18:13:02 19° N visible
13 Nov -0.4 17:11:31 10° WNW 17:14:12 25° NNW 17:16:55 10° NE visible
14 Nov 0.1 17:50:55 10° NW 17:52:59 16° N 17:53:47 15° NNE visible
15 Nov 0.7 18:29:38 10° NW 18:30:07 12° NNW 18:30:07 12° NNW visible
16 Nov 0.1 17:30:42 10° NW 17:32:38 15° N 17:34:06 12° NNE visible
17 Nov 0.0 18:08:42 10° NW 18:10:16 17° N 18:10:16 17° N visible
18 Nov -0.1 17:09:44 10° NW 17:11:48 16° N 17:13:53 10° NE visible
18 Nov 1.0 18:46:11 10° NW 18:46:23 11° NW 18:46:23 11° NW visible
